Other Public Products
Issued by NWS Grand Forks, ND

Home | Current Version | Previous Version | Graphics & Text | Print | Product List | Glossary On
Versions: 1 2 3 4 5 6 7 8 9 10 11 12 13 14 15 16 17 18 19 20 21 22 23 24 25 26 27 28 29 30 31 32 33 34 35 36 37 38 39 40 41 42 43 44 45 46 47 48 49 50
000
FPUS83 KFGF 271810
OPUFGF
PRAIRIE TO PINES WEATHER ROUNDUP
NATIONAL WEATHER SERVICE EASTERN NORTH DAKOTA/GRAND FORKS ND
100 PM CDT MON MAR 27 2017

 **SATELLITE DATA USED TO AUGMENT SKY COVER AT AUTOMATED STATIONS**
 *****  WEATHER ACROSS EASTERN NORTH DAKOTA  *****

CITY           SKY/WX    TMP DP  RH WIND       PRES   REMARKS
GRAND FORKS    CLOUDY    39  39 100 S6        30.00F FOG
6HR MIN TEMP:  37; 6HR MAX TEMP:  39;

GRAND FORKS AF CLOUDY    39  39 100 S7        29.99F FOG
GRAND CITY NWS NOT AVBL
BUXTON         NOT AVBL
DEVILS LAKE    FAIR      45  41  86 SE6       29.97S
FARGO          FAIR      51  43  74 NE5       29.98F
6HR MIN TEMP:  30; 6HR MAX TEMP:  51;

WAHPETON ARPT    N/A     50  37  62 SW5       29.98F
$$

 *****  WEATHER ACROSS CENTRAL AND WESTERN NORTH DAKOTA  *****

CITY           SKY/WX    TMP DP  RH WIND       PRES   REMARKS
JAMESTOWN      FAIR      54  39  57 S8        29.95S
6HR MIN TEMP:  27; 6HR MAX TEMP:  54;

BISMARCK       FAIR      61  38  42 VRB3      29.93S
6HR MIN TEMP:  29; 6HR MAX TEMP:  61;

MINOT          FAIR      42  37  82 NW6       29.94R
6HR MIN TEMP:  31; 6HR MAX TEMP:  43;

MINOT AFB      PTSUNNY   39  38  97 N9        29.94S
6HR MIN TEMP:  29; 6HR MAX TEMP:  39; 6HR PCP: TRACE;

GARRISON         N/A     53  37  54 NE3       29.91F
6HR MIN TEMP:  29; 6HR MAX TEMP:  53;

WILLISTON      PTSUNNY   54  24  31 E10       29.92R
6HR MIN TEMP:  29; 6HR MAX TEMP:  55;

DICKINSON      FAIR      55  33  43 S8        29.88S
6HR MIN TEMP:  32; 6HR MAX TEMP:  56;

HETTINGER      FAIR      56  34  43 SE8       29.90F
6HR MIN TEMP:  25; 6HR MAX TEMP:  57;

$$

 *****  OTHER OBSERVATIONS NORTHEAST NORTH DAKOTA  *****

CITY           SKY/WX    TMP DP  RH WIND       PRES   REMARKS
WALHALLA       NOT AVBL
LANGDON        CLOUDY    39  39 100 NE6       29.98R FOG
CAVALIER         N/A     36  36 100 N3        30.02R FOG
GRAFTON        CLOUDY    37  37 100 SE9       30.01F FOG
CANDO          NOT AVBL
FORT TOTTEN      N/A     52  41  66 S7        29.95S
ROLLA          FOG       34  34 100 N7        29.97R VSB<1/4
RUGBY          NOT AVBL
 ***** THE ABOVE OBSERVATIONS ARE NON NWS ARE NOT QUALITY
        CONTROLLED AND MAY MIS-REPORT RAIN FOR SNOW...
$$

 *****  OTHER OBSERVATIONS SOUTHEAST NORTH DAKOTA *****

CITY           SKY/WX    TMP DP  RH WIND       PRES   REMARKS
COOPERSTOWN    CLOUDY    41  41 100 E8        29.98R FOG
VALLEY CITY    FAIR      48  46  93 VRB6      29.99S
OAKES          NOT AVBL
GWINNER        CLEAR     54  39  58 MISG      29.97F
SHEYENNE NWR     N/A     53  38  56 SE6       29.95
BUFFALO        NOT AVBL
WYNDMERE       NOT AVBL
 ***** THE ABOVE OBSERVATIONS ARE NON NWS ARE NOT QUALITY
       CONTROLLED AND MAY MIS-REPORT RAIN FOR SNOW...
$$

  *****  WEATHER ACROSS NORTHERN MINNESOTA  *****

CITY           SKY/WX    TMP DP  RH WIND       PRES   REMARKS
FLAG ISLAND    FAIR      39  30  70 CALM      30.01S
WARROAD        FAIR      45  37  76 E5        30.01S
ROSEAU         FAIR      46  39  76 CALM      30.00S
HALLOCK        FOG       36  34  93 W3        30.02S VSB 1/2
THF RVR FALLS  CLOUDY   N/A N/A N/A NE3       30.01F FOG
HALSTAD          N/A     44  41  89 E5          N/A
FOSSTON        FAIR      52  39  62 N6        29.99F
BAUDETTE       FAIR      49  34  56 SW3       29.99F
6HR MIN TEMP:  27; 6HR MAX TEMP:  49;

WASKISH        FAIR      48  37  66 W6        29.99F
CROOKSTON      CLOUDY    39  39 100 SE3       30.01F FOG
$$
  *****  WEATHER ACROSS CENTRAL AND WEST MINNESOTA  *****

CITY           SKY/WX    TMP DP  RH WIND       PRES   REMARKS
BEMIDJI        FAIR      49  34  56 SE5       29.98F
PARK RAPIDS    FAIR      52  34  50 SE5       29.96F
6HR MIN TEMP:  33; 6HR MAX TEMP:  53;

WADENA         FAIR      52  36  54 E7        29.97F
DETROIT LAKES  FAIR      52  34  50 CALM      29.98F
MOORHEAD       FAIR      50  41  71 CALM      29.99F
FERGUS FALLS   FAIR      52  37  58 CALM      30.01F
ELBOW LAKE     MOCLDY    50  37  62 SE3       29.99F
6HR MIN TEMP:  32; 6HR MAX TEMP:  51;

MORRIS MN      FAIR      54  37  54 SE3       29.97F
STAPLES        FAIR      52  32  46 CALM      29.98F
WHEATON        FAIR      52  37  58 SE8       30.00F
$$
  *****  WEATHER ELSEWHERE ACROSS MINNESOTA  *****

CITY           SKY/WX    TMP DP  RH WIND       PRES   REMARKS
DULUTH         PTSUNNY   47  35  63 VRB5      29.96F
6HR MIN TEMP:  33; 6HR MAX TEMP:  48;

INTRNTL FALLS  FAIR      50  34  54 N8        29.99S
6HR MIN TEMP:  25; 6HR MAX TEMP:  50;

ELY            FAIR      46  30  53 CALM      29.98S
CLOQUET        FAIR      46  34  61 N5        29.97S
BRAINERD       FAIR      50  33  52 W5        29.98S
6HR MIN TEMP:  32; 6HR MAX TEMP:  50;

HIBBING        FAIR      47  34  60 N5        29.98S
6HR MIN TEMP:  28; 6HR MAX TEMP:  47;

ALEXANDRIA     CLOUDY    50  35  56 E5        29.98F
6HR MIN TEMP:  33; 6HR MAX TEMP:  50;

SAINT CLOUD    CLOUDY    49  37  63 VRB3      29.98R
6HR MIN TEMP:  32; 6HR MAX TEMP:  49;

MINNEAPOLIS    FAIR      53  34  48 N6        29.97F
6HR MIN TEMP:  38; 6HR MAX TEMP:  53;

$$

  *****  WEATHER ACROSS SOUTH DAKOTA  *****

CITY           SKY/WX    TMP DP  RH WIND       PRES   REMARKS
SIOUX FALLS    FAIR      55  37  50 N7        29.97F
6HR MIN TEMP:  40; 6HR MAX TEMP:  56;

BROOKINGS      FAIR      52  36  54 VRB7      29.96F
WATERTOWN      FAIR      50  33  52 CALM      29.96S
6HR MIN TEMP:  32; 6HR MAX TEMP:  51;

HURON          FAIR      54  38  54 VRB5      29.96F
6HR MIN TEMP:  38; 6HR MAX TEMP:  55;

SISSETON         N/A     51  41  68 CALM      29.97S
ABERDEEN       FAIR      56  36  47 VRB6      29.96F
6HR MIN TEMP:  28; 6HR MAX TEMP:  56;

MITCHELL       FAIR      53  38  56 CALM      29.97F
PIERRE         CLOUDY    55  38  52 SE9       29.92F
6HR MIN TEMP:  34; 6HR MAX TEMP:  55;

MOBRIDGE       FAIR      57  34  41 VRB5      29.91S
RAPID CITY     CLOUDY    45  41  86 SE9       29.89F
6HR MIN TEMP:  24; 6HR MAX TEMP:  45;

$$

  *****  SOME WEATHER IN NEARBY STATES *****

CITY           SKY/WX    TMP DP  RH WIND       PRES   REMARKS
GLASGOW MT     CLOUDY    50  27  40 SE9       29.87R
6HR MIN TEMP:  35; 6HR MAX TEMP:  51; 6HR PCP: TRACE;

GREAT FALLS MT FAIR      54  26  34 W10       29.83R
6HR MIN TEMP:  34; 6HR MAX TEMP:  54;

CHEYENNE WY    FAIR      52  29  41 SW10      29.91F
6HR MIN TEMP:  28; 6HR MAX TEMP:  52;

SCOTTSBLUFF NE FAIR      62  30  29 SW10      29.86F
6HR MIN TEMP:  25; 6HR MAX TEMP:  62;

OMAHA NE       CLOUDY    50  39  66 N9        29.99R
6HR MIN TEMP:  44; 6HR MAX TEMP:  50;

DES MOINES IA  CLOUDY    48  42  80 N6        29.96F
6HR MIN TEMP:  43; 6HR MAX TEMP:  49;

DAVENPORT IA   CLOUDY    50  45  83 E8        29.93F
6HR MIN TEMP:  46; 6HR MAX TEMP:  50; 6HR PCP: TRACE;

CHICAGO IL     CLOUDY    48  44  86 E7        29.93F FOG
6HR MIN TEMP:  47; 6HR MAX TEMP:  49; 6HR PCP: TRACE;

EAU CLAIRE WI  CLOUDY    41  35  79 NE3       29.96S
6HR MIN TEMP:  37; 6HR MAX TEMP:  42;

LA CROSSE WI   CLOUDY    45  42  89 W5        29.96R FOG
6HR MIN TEMP:  41; 6HR MAX TEMP:  45; 6HR PCP: TRACE;

$$

  *****  SOME NATIONAL WEATHER *****

CITY           SKY/WX    TMP DP  RH WIND       PRES   REMARKS
LA GUARDIA NY  CLOUDY    46  42  86 NE7       30.04F
6HR MIN TEMP:  40; 6HR MAX TEMP:  46; 6HR PCP:  0.20;

RALEIGH NC     PTSUNNY   74  58  57 SW14      30.08F



USA.gov is the U.S. government's official web portal to all federal, state and local government web resources and services.